KX4KY-13 Weather Reports


time (UTC)temp
C
wind
direction
speed
KPH
gust
KPH
rain 1hr
cm
rain 24hr
cm
rain mn
cm
humidity
%
barometer
mb
20260906043539 23 9 1.6 3.2 0.00 0.00 0.00 81 1015.4
20260906042518 23 23 1.6 3.2 0.00 0.00 0.00 80 1015.5
20260906041520 23 14 0.0 1.6 0.00 0.00 0.00 80 1015.4
20260906040519 23 17 0.0 3.2 0.00 0.00 0.00 80 1015.7
20260906035518 23 9 1.6 3.2 0.00 0.00 0.00 80 1015.7
20260906034519 23 16 0.0 1.6 0.00 0.00 0.00 79 1015.9
20260906033519 23 1 0.0 1.6 0.00 0.00 0.00 79 1016.0
20260906032642 23 12 0.0 1.6 0.00 0.00 0.00 78 1016.0
20260906031520 23 352 0.0 1.6 0.00 0.00 0.00 77 1015.9
20260906030519 23 27 0.0 1.6 0.00 0.00 0.00 79 1016.0
20260906025520 23 15 0.0 3.2 0.00 0.00 0.00 79 1015.8
20260906024519 23 46 1.6 1.6 0.00 0.00 0.00 79 1015.8
20260906023519 23 43 0.0 1.6 0.00 0.00 0.00 79 1015.7
20260906022520 23 340 0.0 3.2 0.00 0.00 0.00 79 1015.6
20260906021520 23 12 0.0 1.6 0.00 0.00 0.00 79 1015.5
20260906020520 23 26 0.0 1.6 0.00 0.00 0.00 79 1015.4
20260906015518 23 16 0.0 1.6 0.00 0.00 0.00 78 1015.4
20260906014518 23 13 0.0 3.2 0.00 0.00 0.00 78 1015.5
20260906013518 23 250 0.0 3.2 0.00 0.00 0.00 78 1015.4
20260906012518 23 344 0.0 3.2 0.00 0.00 0.00 78 1015.5
20260906011538 23 311 0.0 3.2 0.00 0.00 0.00 78 1015.4
20260906010516 23 326 0.0 3.2 0.00 0.00 0.00 78 1015.3
20260906005518 24 284 0.0 3.2 0.00 0.00 0.00 76 1015.3
20260906004516 24 193 0.0 3.2 0.00 0.00 0.00 75 1015.2
20260906003516 24 222 0.0 1.6 0.00 0.00 0.00 75 1015.0
20260906002517 23 163 0.0 3.2 0.00 0.00 0.00 76 1015.0
20260906001638 23 289 0.0 3.2 0.00 0.00 0.00 77 1014.8
20260906000516 23 2 0.0 1.6 0.00 0.00 0.00 77 1014.7
20260905235516 23 306 0.0 1.6 0.00 0.00 0.00 77 1014.6
20260905234521 23 358 0.0 3.2 0.00 0.00 0.00 76 1014.5
20260905233517 24 315 0.0 3.2 0.00 0.00 0.00 75 1014.6
20260905232517 24 174 0.0 3.2 0.00 0.00 0.00 74 1014.5
20260905231517 24 344 0.0 1.6 0.00 0.00 0.00 75 1014.5
20260905230517 24 325 0.0 3.2 0.00 0.00 0.00 75 1014.6
20260905225538 24 181 1.6 4.8 0.00 0.00 0.00 73 1014.6
20260905224518 25 187 0.0 6.4 0.00 0.00 0.00 72 1014.6
20260905223517 25 188 1.6 4.8 0.00 0.00 0.00 71 1014.5
20260905222517 25 196 0.0 4.8 0.00 0.00 0.00 73 1014.5
20260905221518 25 270 0.0 1.6 0.00 0.00 0.00 74 1014.6
20260905220518 25 328 0.0 1.6 0.00 0.00 0.00 73 1014.6
20260905215519 25 115 0.0 1.6 0.00 0.00 0.00 73 1014.6
20260905214518 25 184 0.0 3.2 0.00 0.00 0.00 73 1014.8
20260905213518 24 2 0.0 3.2 0.00 0.00 0.00 72 1014.9
20260905212539 24 9 0.0 3.2 0.00 0.00 0.00 73 1015.0
20260905211520 25 11 0.0 3.2 0.00 0.00 0.00 71 1015.0
20260905210516 25 352 0.0 3.2 0.00 0.00 0.00 70 1015.1
20260905205516 25 4 1.6 3.2 0.00 0.00 0.00 70 1015.2
20260905204516 25 19 0.0 1.6 0.00 0.00 0.00 69 1015.1
20260905203517 26 5 0.0 3.2 0.00 0.00 0.00 69 1015.2
20260905202516 25 21 0.0 1.6 0.00 0.00 0.00 68 1015.2
20260905201516 25 349 0.0 3.2 0.00 0.00 0.00 70 1015.3
20260905200516 25 17 1.6 3.2 0.00 0.00 0.00 72 1015.4
20260905195517 25 345 0.0 3.2 0.00 0.00 0.00 72 1015.5
20260905194516 25 357 0.0 3.2 0.00 0.00 0.00 71 1015.4
20260905193516 24 94 1.6 4.8 0.00 0.00 0.00 67 1015.4
20260905192518 23 153 3.2 9.7 0.00 0.00 0.00 67 1015.7
20260905191517 23 44 0.0 3.2 0.00 0.00 0.00 71 1015.7
20260905190517 23 141 1.6 8.0 0.00 0.00 0.00 70 1016.0
20260905185539 24 145 4.8 16.1 0.00 0.00 0.00 74 1016.6
20260905184518 26 55 4.8 14.5 0.00 0.00 0.00 75 1017.0
20260905183518 27 334 0.0 4.8 0.00 0.00 0.00 77 1016.3
20260905182539 27 7 0.0 1.6 0.00 0.00 0.00 73 1016.3
20260905181518 28 0.0 0.0 0.00 0.00 0.00 71 1016.1
20260905180518 29 124 0.0 3.2 0.00 0.00 0.00 68 1016.1
20260905175519 30 20 0.0 3.2 0.00 0.00 0.00 65 1016.1
20260905174519 31 12 0.0 1.6 0.00 0.00 0.00 61 1016.2
20260905173520 31 12 1.6 3.2 0.00 0.00 0.00 57 1016.2
20260905172536 32 122 1.6 8.0 0.00 0.00 0.00 59 1016.3
20260905171516 31 86 0.0 4.8 0.00 0.00 0.00 60 1016.3
20260905170516 31 20 1.6 4.8 0.00 0.00 0.00 61 1016.4
20260905165516 31 39 1.6 4.8 0.00 0.00 0.00 62 1016.5
20260905164516 31 90 1.6 6.4 0.00 0.00 0.00 62 1016.6
20260905163516 31 101 1.6 6.4 0.00 0.00 0.00 62 1016.9
20260905162516 30 143 1.6 6.4 0.00 0.00 0.00 62 1017.0
20260905161516 31 20 1.6 3.2 0.00 0.00 0.00 64 1017.0
20260905160537 31 64 1.6 6.4 0.00 0.00 0.00 63 1017.0
20260905155518 30 44 0.0 3.2 0.00 0.00 0.00 64 1017.0
20260905154538 30 14 1.6 3.2 0.00 0.00 0.00 64 1017.0
20260905153518 30 17 1.6 6.4 0.00 0.00 0.00 64 1017.1
20260905152517 30 16 0.0 3.2 0.00 0.00 0.00 64 1017.0
20260905151518 30 16 1.6 4.8 0.00 0.00 0.00 64 1017.0
20260905150519 30 61 1.6 3.2 0.00 0.00 0.00 65 1017.0
20260905145518 30 17 0.0 3.2 0.00 0.00 0.00 65 1017.0
20260905144538 29 359 1.6 6.4 0.00 0.00 0.00 65 1017.0
20260905143518 29 9 0.0 3.2 0.00 0.00 0.00 66 1017.0
20260905142518 28 15 0.0 1.6 0.00 0.00 0.00 66 1017.0
20260905141519 28 52 0.0 4.8 0.00 0.00 0.00 67 1017.1
20260905140520 28 30 1.6 3.2 0.00 0.00 0.00 68 1017.1
20260905135518 28 19 1.6 3.2 0.00 0.00 0.00 68 1017.1
20260905134516 27 14 1.6 3.2 0.00 0.00 0.00 68 1017.2
20260905133516 27 15 1.6 3.2 0.00 0.00 0.00 69 1017.2
20260905132516 27 29 1.6 4.8 0.00 0.00 0.00 70 1017.3
20260905131536 26 34 1.6 3.2 0.00 0.00 0.00 72 1017.3
20260905130518 26 27 1.6 3.2 0.00 0.00 0.00 71 1017.3
20260905125516 26 10 0.0 3.2 0.00 0.00 0.00 72 1017.3
20260905124536 26 10 0.0 3.2 0.00 0.00 0.00 73 1017.2
20260905123517 26 18 0.0 3.2 0.00 0.00 0.00 73 1017.1
20260905122517 25 360 1.6 3.2 0.00 0.00 0.00 75 1017.1
20260905121517 25 10 1.6 3.2 0.00 0.00 0.00 76 1017.1
20260905120517 25 2 1.6 3.2 0.00 0.00 0.00 76 1017.2
20260905115517 25 13 1.6 3.2 0.00 0.00 0.00 75 1017.0
20260905114517 25 354 1.6 3.2 0.00 0.00 0.00 76 1016.9
20260905113519 24 3 0.0 3.2 0.00 0.00 0.00 77 1016.9
20260905112517 23 8 0.0 1.6 0.00 0.00 0.00 78 1016.7
20260905111537 23 9 0.0 3.2 0.00 0.00 0.00 80 1016.6
20260905110519 23 344 0.0 1.6 0.00 0.00 0.00 81 1016.4
20260905105519 23 357 0.0 1.6 0.00 0.00 0.00 80 1016.3
20260905104538 23 357 0.0 1.6 0.00 0.00 0.00 80 1016.2
20260905103518 23 20 0.0 3.2 0.00 0.00 0.00 80 1016.2
20260905102518 23 344 1.6 4.8 0.00 0.00 0.00 80 1016.2
20260905101518 23 354 1.6 3.2 0.00 0.00 0.00 80 1016.1
20260905100539 23 322 0.0 1.6 0.00 0.00 0.00 80 1016.1
20260905095519 23 19 0.0 1.6 0.00 0.00 0.00 80 1016.0
20260905094520 23 15 1.6 3.2 0.00 0.00 0.00 80 1016.1
20260905093519 23 345 1.6 1.6 0.00 0.00 0.00 80 1016.0
20260905092541 23 357 1.6 3.2 0.00 0.00 0.00 81 1016.0
20260905091519 23 12 0.0 3.2 0.00 0.00 0.00 81 1016.0
20260905090520 23 353 1.6 3.2 0.00 0.00 0.00 81 1016.1
20260905085520 23 348 0.0 1.6 0.00 0.00 0.00 81 1016.1
20260905084519 23 7 0.0 1.6 0.00 0.00 0.00 81 1016.2
20260905083521 23 4 0.0 1.6 0.00 0.00 0.00 81 1016.4
20260905082520 23 347 0.0 1.6 0.00 0.00 0.00 81 1016.4
20260905081521 23 345 0.0 3.2 0.00 0.00 0.00 81 1016.5
20260905080520 23 0.0 0.0 0.00 0.00 0.00 82 1016.6
20260905075520 23 82 0.0 1.6 0.00 0.00 0.00 82 1016.7
20260905074520 23 0.0 0.0 0.00 0.00 0.00 81 1016.7
20260905073600 23 0.0 0.0 0.00 0.00 0.00 81 1016.8
20260905072521 23 0.0 0.0 0.00 0.00 0.00 81 1016.9
20260905071520 23 289 0.0 1.6 0.00 0.00 0.00 80 1016.9
20260905070522 23 0.0 0.0 0.00 0.00 0.00 80 1016.9
20260905065521 23 0.0 0.0 0.00 0.00 0.00 81 1017.0
20260905064521 23 21 0.0 3.2 0.00 0.00 0.00 80 1017.1
20260905063521 23 320 0.0 3.2 0.00 0.00 0.00 80 1017.2
20260905062521 23 31 0.0 1.6 0.00 0.00 0.00 79 1017.3
20260905061522 23 21 0.0 1.6 0.00 0.00 0.00 78 1017.4
20260905060522 23 10 1.6 4.8 0.00 0.00 0.00 79 1017.3
20260905055522 23 357 0.0 1.6 0.00 0.00 0.00 80 1017.5
20260905054522 23 346 0.0 3.2 0.00 0.00 0.00 79 1017.6
20260905053522 23 346 1.6 3.2 0.00 0.00 0.00 80 1017.7
20260905052522 23 335 0.0 1.6 0.00 0.00 0.00 80 1017.8
20260905051524 23 3 0.0 1.6 0.00 0.00 0.00 80 1017.8
20260905050543 23 319 0.0 1.6 0.00 0.00 0.00 81 1017.7
20260905045522 23 315 0.0 1.6 0.00 0.00 0.00 81 1017.8
20260905044545 23 340 0.0 1.6 0.00 0.00 0.00 80 1017.7